Time,TemperatureF,DewpointF,PressureIn,WindDirection,WindDirectionDegrees,WindSpeedMPH,WindSpeedGustMPH,Humidity,HourlyPrecipIn,Conditions,Clouds,dailyrainin,SoftwareType,DateUTC
2013-04-04 00:02:00,37.0,30.0,-100.00,North,1,4.0,7.0,75,0.00,,,-99.99,,2013-04-04 08:02:00,
2013-04-04 00:12:00,37.0,30.0,-100.00,North,1,4.0,7.0,75,0.00,,,-99.99,,2013-04-04 08:12:00,
2013-04-04 00:22:00,37.0,30.0,-100.00,North,1,4.0,7.0,75,0.00,,,-99.99,,2013-04-04 08:22:00,
2013-04-04 00:30:00,36.0,30.0,-100.00,ENE,78,6.0,6.0,76,0.00,,,-99.99,,2013-04-04 08:30:00,
2013-04-04 00:52:00,36.0,30.0,-100.00,ENE,78,6.0,6.0,76,0.00,,,-99.99,,2013-04-04 08:52:00,
2013-04-04 01:02:00,36.0,30.0,-100.00,ENE,78,6.0,6.0,76,0.00,,,-99.99,,2013-04-04 09:02:00,
2013-04-04 01:12:00,36.0,30.0,-100.00,ENE,78,6.0,6.0,76,0.00,,,-99.99,,2013-04-04 09:12:00,
2013-04-04 01:22:00,36.0,30.0,-100.00,ENE,78,6.0,6.0,76,0.00,,,-99.99,,2013-04-04 09:22:00,
2013-04-04 01:30:00,36.0,30.0,-100.00,NE,44,8.0,11.0,77,0.00,,,-99.99,,2013-04-04 09:30:00,
2013-04-04 01:53:00,36.0,30.0,-100.00,NE,44,8.0,11.0,77,0.00,,,-99.99,,2013-04-04 09:53:00,
2013-04-04 02:03:00,36.0,30.0,-100.00,NE,44,8.0,11.0,77,0.00,,,-99.99,,2013-04-04 10:03:00,
2013-04-04 02:12:00,36.0,30.0,-100.00,NE,44,8.0,11.0,77,0.00,,,-99.99,,2013-04-04 10:12:00,
2013-04-04 02:23:00,36.0,30.0,-100.00,NE,44,8.0,11.0,77,0.00,,,-99.99,,2013-04-04 10:23:00,
2013-04-04 02:30:00,36.0,30.0,-100.00,NNE,33,11.0,13.0,78,0.00,,,-99.99,,2013-04-04 10:30:00,
2013-04-04 02:53:00,36.0,30.0,-100.00,NNE,33,11.0,13.0,78,0.00,,,-99.99,,2013-04-04 10:53:00,
2013-04-04 03:02:00,36.0,30.0,-100.00,NNE,33,11.0,13.0,78,0.00,,,-99.99,,2013-04-04 11:02:00,
2013-04-04 03:12:00,36.0,30.0,-100.00,NNE,33,11.0,13.0,78,0.00,,,-99.99,,2013-04-04 11:12:00,
2013-04-04 03:22:00,36.0,30.0,-100.00,NNE,33,11.0,13.0,78,0.00,,,-99.99,,2013-04-04 11:22:00,
2013-04-04 03:30:00,35.0,28.0,-100.00,NE,41,11.0,-999.0,75,0.00,,,-99.99,,2013-04-04 11:30:00,
2013-04-04 03:53:00,35.0,28.0,-100.00,NE,41,11.0,-999.0,75,0.00,,,-99.99,,2013-04-04 11:53:00,
2013-04-04 04:02:00,35.0,28.0,-100.00,NE,41,11.0,-999.0,75,0.00,,,-99.99,,2013-04-04 12:02:00,
2013-04-04 04:12:00,35.0,28.0,-100.00,NE,41,11.0,-999.0,75,0.00,,,-99.99,,2013-04-04 12:12:00,
2013-04-04 04:22:00,35.0,28.0,-100.00,NE,41,11.0,-999.0,75,0.00,,,-99.99,,2013-04-04 12:22:00,
2013-04-04 04:30:00,35.0,28.0,-100.00,NE,43,12.0,-999.0,76,0.00,,,-99.99,,2013-04-04 12:30:00,
2013-04-04 04:52:00,35.0,28.0,-100.00,NE,43,12.0,-999.0,76,0.00,,,-99.99,,2013-04-04 12:52:00,
2013-04-04 05:02:00,35.0,28.0,-100.00,NE,43,12.0,-999.0,76,0.00,,,-99.99,,2013-04-04 13:02:00,
2013-04-04 05:12:00,35.0,28.0,-100.00,NE,43,12.0,-999.0,76,0.00,,,-99.99,,2013-04-04 13:12:00,
2013-04-04 05:22:00,35.0,28.0,-100.00,NE,43,12.0,-999.0,76,0.00,,,-99.99,,2013-04-04 13:22:00,
2013-04-04 05:52:00,35.0,28.0,-100.00,ENE,65,9.0,11.0,75,0.00,,,-99.99,,2013-04-04 13:52:00,
2013-04-04 06:12:00,35.0,28.0,-100.00,ENE,65,9.0,11.0,75,0.00,,,-99.99,,2013-04-04 14:12:00,
2013-04-04 06:22:00,35.0,28.0,-100.00,ENE,65,9.0,11.0,75,0.00,,,-99.99,,2013-04-04 14:22:00,
2013-04-04 06:52:00,34.0,27.0,-100.00,East,92,5.0,8.0,78,0.00,,,-99.99,,2013-04-04 14:52:00,
2013-04-04 07:12:00,34.0,27.0,-100.00,East,92,5.0,8.0,78,0.00,,,-99.99,,2013-04-04 15:12:00,
2013-04-04 07:22:00,34.0,27.0,-100.00,East,92,5.0,8.0,78,0.00,,,-99.99,,2013-04-04 15:22:00,
2013-04-04 07:30:00,33.0,27.0,-100.00,East,79,9.0,12.0,76,0.00,,,-99.99,,2013-04-04 15:30:00,
2013-04-04 07:53:00,33.0,27.0,-100.00,East,79,9.0,12.0,76,0.00,,,-99.99,,2013-04-04 15:53:00,
2013-04-04 08:12:00,33.0,27.0,-100.00,East,79,9.0,12.0,76,0.00,,,-99.99,,2013-04-04 16:12:00,
2013-04-04 08:23:00,33.0,27.0,-100.00,East,79,9.0,12.0,76,0.00,,,-99.99,,2013-04-04 16:23:00,
2013-04-04 08:30:00,34.0,26.0,-100.00,ENE,66,12.0,14.0,72,0.00,,,-99.99,,2013-04-04 16:30:00,
2013-04-04 08:53:00,34.0,26.0,-100.00,ENE,66,12.0,14.0,72,0.00,,,-99.99,,2013-04-04 16:53:00,
2013-04-04 09:13:00,34.0,26.0,-100.00,ENE,66,12.0,14.0,72,0.00,,,-99.99,,2013-04-04 17:13:00,
2013-04-04 09:22:00,34.0,26.0,-100.00,ENE,66,12.0,14.0,72,0.00,,,-99.99,,2013-04-04 17:22:00,
2013-04-04 09:30:00,34.0,25.0,-100.00,NE,52,17.0,18.0,70,0.00,,,-99.99,,2013-04-04 17:30:00,
2013-04-04 09:52:00,34.0,25.0,-100.00,NE,52,17.0,18.0,70,0.00,,,-99.99,,2013-04-04 17:52:00,
2013-04-04 10:02:00,34.0,25.0,-100.00,NE,52,17.0,18.0,70,0.00,,,-99.99,,2013-04-04 18:02:00,
2013-04-04 10:12:00,34.0,25.0,-100.00,NE,52,17.0,18.0,70,0.00,,,-99.99,,2013-04-04 18:12:00,
2013-04-04 10:22:00,34.0,25.0,-100.00,NE,52,17.0,18.0,70,0.00,,,-99.99,,2013-04-04 18:22:00,
2013-04-04 10:30:00,34.0,25.0,-100.00,ENE,59,16.0,17.0,70,0.00,,,-99.99,,2013-04-04 18:30:00,
2013-04-04 10:52:00,34.0,25.0,-100.00,ENE,59,16.0,17.0,70,0.00,,,-99.99,,2013-04-04 18:52:00,
2013-04-04 11:02:00,34.0,25.0,-100.00,ENE,59,16.0,17.0,70,0.00,,,-99.99,,2013-04-04 19:02:00,
2013-04-04 11:12:00,34.0,25.0,-100.00,ENE,59,16.0,17.0,70,0.00,,,-99.99,,2013-04-04 19:12:00,
2013-04-04 11:22:00,34.0,25.0,-100.00,ENE,59,16.0,17.0,70,0.00,,,-99.99,,2013-04-04 19:22:00,
2013-04-04 11:30:00,35.0,24.0,-100.00,ENE,65,15.0,16.0,64,0.00,,,-99.99,,2013-04-04 19:30:00,
2013-04-04 11:52:00,35.0,24.0,-100.00,ENE,65,15.0,16.0,64,0.00,,,-99.99,,2013-04-04 19:52:00,
2013-04-04 12:03:00,35.0,24.0,-100.00,ENE,65,15.0,16.0,64,0.00,,,-99.99,,2013-04-04 20:03:00,
2013-04-04 12:12:00,35.0,24.0,-100.00,ENE,65,15.0,16.0,64,0.00,,,-99.99,,2013-04-04 20:12:00,
2013-04-04 12:22:00,35.0,24.0,-100.00,ENE,65,15.0,16.0,64,0.00,,,-99.99,,2013-04-04 20:22:00,
2013-04-04 12:30:00,36.0,24.0,-100.00,ENE,71,10.0,11.0,60,0.00,,,-99.99,,2013-04-04 20:30:00,
2013-04-04 12:53:00,36.0,24.0,-100.00,ENE,71,10.0,11.0,60,0.00,,,-99.99,,2013-04-04 20:53:00,
2013-04-04 13:02:00,36.0,24.0,-100.00,ENE,71,10.0,11.0,60,0.00,,,-99.99,,2013-04-04 21:02:00,
2013-04-04 13:12:00,36.0,24.0,-100.00,ENE,71,10.0,11.0,60,0.00,,,-99.99,,2013-04-04 21:12:00,
2013-04-04 13:22:00,36.0,24.0,-100.00,ENE,71,10.0,11.0,60,0.00,,,-99.99,,2013-04-04 21:22:00,
2013-04-04 13:30:00,38.0,25.0,-100.00,ENE,74,5.0,6.0,59,0.00,,,-99.99,,2013-04-04 21:30:00,
2013-04-04 13:53:00,38.0,25.0,-100.00,ENE,74,5.0,6.0,59,0.00,,,-99.99,,2013-04-04 21:53:00,
2013-04-04 14:03:00,38.0,25.0,-100.00,ENE,74,5.0,6.0,59,0.00,,,-99.99,,2013-04-04 22:03:00,
2013-04-04 14:12:00,38.0,25.0,-100.00,ENE,74,5.0,6.0,59,0.00,,,-99.99,,2013-04-04 22:12:00,
2013-04-04 14:22:00,38.0,25.0,-100.00,ENE,74,5.0,6.0,59,0.00,,,-99.99,,2013-04-04 22:22:00,
2013-04-04 14:30:00,39.0,25.0,-100.00,ENE,66,4.0,5.0,56,0.00,,,-99.99,,2013-04-04 22:30:00,
2013-04-04 14:53:00,39.0,25.0,-100.00,ENE,66,4.0,5.0,56,0.00,,,-99.99,,2013-04-04 22:53:00,
2013-04-04 15:02:00,39.0,25.0,-100.00,ENE,66,4.0,5.0,56,0.00,,,-99.99,,2013-04-04 23:02:00,
2013-04-04 15:12:00,39.0,25.0,-100.00,ENE,66,4.0,5.0,56,0.00,,,-99.99,,2013-04-04 23:12:00,
2013-04-04 15:22:00,39.0,25.0,-100.00,ENE,66,4.0,5.0,56,0.00,,,-99.99,,2013-04-04 23:22:00,
2013-04-04 15:30:00,42.0,25.0,-100.00,WSW,244,4.0,6.0,51,0.00,,,-99.99,,2013-04-04 23:30:00,
2013-04-04 15:52:00,42.0,25.0,-100.00,WSW,244,4.0,6.0,51,0.00,,,-99.99,,2013-04-04 23:52:00,
2013-04-04 16:02:00,42.0,25.0,-100.00,WSW,244,4.0,6.0,51,0.00,,,-99.99,,2013-04-05 00:02:00,
2013-04-04 16:12:00,42.0,25.0,-100.00,WSW,244,4.0,6.0,51,0.00,,,-99.99,,2013-04-05 00:12:00,
2013-04-04 16:22:00,42.0,25.0,-100.00,WSW,244,4.0,6.0,51,0.00,,,-99.99,,2013-04-05 00:22:00,
2013-04-04 16:30:00,42.0,23.0,-100.00,NNW,334,3.0,6.0,46,0.00,,,-99.99,,2013-04-05 00:30:00,
2013-04-04 16:52:00,42.0,23.0,-100.00,NNW,334,3.0,6.0,46,0.00,,,-99.99,,2013-04-05 00:52:00,
2013-04-04 17:02:00,42.0,23.0,-100.00,NNW,334,3.0,6.0,46,0.00,,,-99.99,,2013-04-05 01:02:00,
2013-04-04 17:12:00,42.0,23.0,-100.00,NNW,334,3.0,6.0,46,0.00,,,-99.99,,2013-04-05 01:12:00,
2013-04-04 17:22:00,42.0,23.0,-100.00,NNW,334,3.0,6.0,46,0.00,,,-99.99,,2013-04-05 01:22:00,
2013-04-04 17:30:00,43.0,20.0,-100.00,WSW,254,4.0,6.0,41,0.00,,,-99.99,,2013-04-05 01:30:00,
2013-04-04 17:53:00,43.0,20.0,-100.00,WSW,254,4.0,6.0,41,0.00,,,-99.99,,2013-04-05 01:53:00,
2013-04-04 18:02:00,43.0,20.0,-100.00,WSW,254,4.0,6.0,41,0.00,,,-99.99,,2013-04-05 02:02:00,
2013-04-04 18:12:00,43.0,20.0,-100.00,WSW,254,4.0,6.0,41,0.00,,,-99.99,,2013-04-05 02:12:00,
2013-04-04 18:22:00,43.0,20.0,-100.00,WSW,254,4.0,6.0,41,0.00,,,-99.99,,2013-04-05 02:22:00,
2013-04-04 18:30:00,41.0,22.0,-100.00,WNW,288,5.0,8.0,46,0.00,,,-99.99,,2013-04-05 02:30:00,
2013-04-04 18:52:00,41.0,22.0,-100.00,WNW,288,5.0,8.0,46,0.00,,,-99.99,,2013-04-05 02:52:00,
2013-04-04 19:02:00,41.0,22.0,-100.00,WNW,288,5.0,8.0,46,0.00,,,-99.99,,2013-04-05 03:02:00,
2013-04-04 19:12:00,41.0,22.0,-100.00,WNW,288,5.0,8.0,46,0.00,,,-99.99,,2013-04-05 03:12:00,
2013-04-04 19:22:00,41.0,22.0,-100.00,WNW,288,5.0,8.0,46,0.00,,,-99.99,,2013-04-05 03:22:00,
2013-04-04 19:30:00,41.0,24.0,-100.00,NNE,13,12.0,15.0,50,0.00,,,-99.99,,2013-04-05 03:30:00,
2013-04-04 19:53:00,41.0,24.0,-100.00,NNE,13,12.0,15.0,50,0.00,,,-99.99,,2013-04-05 03:53:00,
2013-04-04 20:02:00,41.0,24.0,-100.00,NNE,13,12.0,15.0,50,0.00,,,-99.99,,2013-04-05 04:02:00,
2013-04-04 20:12:00,41.0,24.0,-100.00,NNE,13,12.0,15.0,50,0.00,,,-99.99,,2013-04-05 04:12:00,
2013-04-04 20:22:00,41.0,24.0,-100.00,NNE,13,12.0,15.0,50,0.00,,,-99.99,,2013-04-05 04:22:00,
2013-04-04 20:30:00,40.0,23.0,-100.00,NNE,13,13.0,16.0,50,0.00,,,-99.99,,2013-04-05 04:30:00,
2013-04-04 20:52:00,40.0,23.0,-100.00,NNE,13,13.0,16.0,50,0.00,,,-99.99,,2013-04-05 04:52:00,
2013-04-04 21:02:00,40.0,23.0,-100.00,NNE,13,13.0,16.0,50,0.00,,,-99.99,,2013-04-05 05:02:00,
2013-04-04 21:12:00,40.0,23.0,-100.00,NNE,13,13.0,16.0,50,0.00,,,-99.99,,2013-04-05 05:12:00,
2013-04-04 21:22:00,40.0,23.0,-100.00,NNE,13,13.0,16.0,50,0.00,,,-99.99,,2013-04-05 05:22:00,
2013-04-04 21:30:00,38.0,20.0,-100.00,NNE,14,15.0,17.0,48,0.00,,,-99.99,,2013-04-05 05:30:00,
2013-04-04 21:52:00,38.0,20.0,-100.00,NNE,14,15.0,17.0,48,0.00,,,-99.99,,2013-04-05 05:52:00,
2013-04-04 22:02:00,38.0,20.0,-100.00,NNE,14,15.0,17.0,48,0.00,,,-99.99,,2013-04-05 06:02:00,
2013-04-04 22:12:00,38.0,20.0,-100.00,NNE,14,15.0,17.0,48,0.00,,,-99.99,,2013-04-05 06:12:00,
2013-04-04 22:22:00,38.0,20.0,-100.00,NNE,14,15.0,17.0,48,0.00,,,-99.99,,2013-04-05 06:22:00,
2013-04-04 22:30:00,37.0,20.0,-100.00,NNE,22,15.0,17.0,50,0.00,,,-99.99,,2013-04-05 06:30:00,
2013-04-04 22:52:00,37.0,20.0,-100.00,NNE,22,15.0,17.0,50,0.00,,,-99.99,,2013-04-05 06:52:00,
2013-04-04 23:02:00,37.0,20.0,-100.00,NNE,22,15.0,17.0,50,0.00,,,-99.99,,2013-04-05 07:02:00,
2013-04-04 23:12:00,37.0,20.0,-100.00,NNE,22,15.0,17.0,50,0.00,,,-99.99,,2013-04-05 07:12:00,
2013-04-04 23:22:00,37.0,20.0,-100.00,NNE,22,15.0,17.0,50,0.00,,,-99.99,,2013-04-05 07:22:00,
2013-04-04 23:30:00,36.0,20.0,-100.00,NNE,23,14.0,16.0,51,0.00,,,-99.99,,2013-04-05 07:30:00,
2013-04-04 23:52:00,36.0,20.0,-100.00,NNE,23,14.0,16.0,51,0.00,,,-99.99,,2013-04-05 07:52:00,